User: anonymous   Login
Location: Godiavel Galaoual
(15.2485°N, 12.6604°W)
Time: 15:29:12
(UTC+00:00)
Language:

LilacSat-2 - Orbit

View from above orbital plane
View from above orbital plane
View from above satellite
View from above satellite

Ground track
Ground track

The orbit data is extracted from the following two-line orbital elements,

1 40908U 15049K   21215.18982818  .00000860  00000-0  50150-4 0  9995
2 40908  97.5059 214.5489 0016937  42.7633  21.6878 15.14504606324308
Epoch (UTC): 03 August 2021 04:33:21
Eccentricity: 0.0016937
inclination: 97.5059°
perigee height: 511 km
apogee height: 534 km
right ascension of ascending node: 214.5489°
argument of perigee: 42.7633°
revolutions per day: 15.14504606
mean anomaly at epoch: 21.6878°
orbit number at epoch: 32430

The dashed part of the orbit path shows where the satellite is in the earth's shadow,  

DLR